Dewpoint
2 1 3 2 2 0 -2 -2 -2 -2 -2 -2 -2 -2 0 4 4 4 4 4 3 1 1 1 -0 -1 -3 -5 -6 -6 -8 -8 -5 -0 4 5 5 7 7 9 10 9 8
5 5 5 4 3 2 0 -1 -2 -2 -1 -1 -0 -1 0 3 3 1 3 3 3 3 3 2 1 -0 -1 -2 -2 -3 -4 -7 -9 -8 -7 -2 5 5 6 7 9 10 9
5 6 6 5 3 0 -0 -0 -0 -0 -0 -0 1 2 2 2 1 -0 0 2 2 2 2 2 2 0 -0 -0 -1 -1 -2 -4 -6 -10 -9 -8 -6 2 6 7 8 9 10
6 5 3 0 -1 -1 -0 -0 -0 -0 -0 -1 -1 -1 -1 -1 -1 -0 -0 -1 -1 1 1 2 2 2 0 -1 -1 -1 -1 -2 -4 -8 -9 -8 -8 -5 4 7 8 8 10
3 1 -1 -1 -0 0 0 0 -0 -1 -1 -1 -1 -2 -5 -7 -8 -9 -10 -7 -4 -3 -2 -1 -0 1 3 2 1 -1 -2 -2 -3 -4 -6 -9 -8 -8 -5 4 7 8 8
-2 -1 -0 0 -2 -0 0 -0 -1 -2 -2 -3 -3 -5 -6 -7 -7 -11 -13 -12 -10 -5 -2 -1 1 2 2 2 2 1 -0 -2 -2 -2 -3 -8 -8 -8 -8 -7 3 7 8
1 0 -2 -3 -2 -1 -2 -3 -3 -4 -5 -5 -6 -7 -7 -9 -9 -11 -4 -3 -3 -4 -4 -1 1 2 3 3 3 2 1 -0 -2 -2 -2 -3 -8 -6 -8 -9 -8 -1 6
-2 -2 -3 -2 -1 -2 -4 -6 -8 -9 -11 -12 -10 -11 -4 -6 -4 -2 -4 -2 -1 -1 -2 -2 -2 -3 -2 0 3 3 2 1 -1 4 0 -1 -3 -5 -5 -9 -9 -8 -5
-2 -2 -2 -2 -3 -4 -6 -8 -10 -11 -11 -11 -10 -4 -2 -1 -2 -3 -4 -4 -2 -3 -5 -6 -7 -6 -7 -6 -3 0 1 2 1 -1 1 1 -2 1 -4 -8 -10 -10 -8
-1 -1 -3 -2 -2 -6 -9 -10 -12 -14 -9 -7 -6 -4 -4 -3 -1 -2 -4 -6 -6 -7 -8 -9 -8 -8 -8 -10 -10 -8 -4 -2 2 2 -1 1 -1 -2 -3 -7 -11 -11 -10
-2 -2 -1 -0 -3 -7 -7 -6 -5 -13 -6 -3 -2 -3 -3 -2 -2 -2 -2 -3 -4 -7 -9 -10 -8 -8 -8 -8 -8 -11 -11 -6 -1 -1 2 1 -1 -3 -3 -6 -9 -10 -10
0 -0 -1 -4 -4 -6 -5 -4 -8 -9 -6 -6 -6 -6 -5 -3 -3 -3 -3 -3 -3 -5 -5 -8 -8 -7 -8 -6 -4 -4 -4 -1 -1 -2 1 2 -0 -1 -2 -6 -6 -6 -7
-3 -4 -4 -3 -3 -3 -11 -12 -10 -11 -11 -11 -12 -14 -14 -11 -8 -6 -5 -4 -4 -6 -6 -4 -4 -4 -6 -10 -7 -5 -3 -0 1 1 -2 1 1 -1 -4 -5 -7 -5 -4
-3 -2 -2 -4 -8 -13 -16 -17 -16 -14 -14 -15 -14 -14 -14 -13 -8 -7 -6 -7 -7 -6 -7 -8 -8 -5 -6 -10 -8 -7 -5 -3 -2 -1 -0 -0 0 1 -1 -5 -5 -5 -6
-2 -2 -4 -3 -4 -9 -15 -17 -15 -13 -13 -13 -13 -13 -12 -12 -12 -11 -10 -11 -12 -6 -9 -10 -6 -8 -6 -8 -9 -10 -9 -7 -3 -3 -0 -0 0 0 -0 -1 -3 -4 -6
-2 -1 -1 -3 -7 -7 -15 -16 -14 -13 -14 -13 -13 -13 -11 -10 -10 -11 -12 -14 -13 -14 -10 -9 -10 -8 -6 -6 -8 -10 -10 -9 -9 -8 -6 -1 -1 0 0 -0 0 0 -0
-2 -2 -3 -6 -5 -11 -14 -15 -16 -14 -13 -12 -11 -10 -10 -11 -10 -11 -11 -12 -13 -13 -14 -16 -12 -10 -7 -7 -6 -9 -11 -10 -9 -9 -4 -4 -1 -1 -1 -2 -3 -3 -0
-1 -2 -4 -4 -11 -13 -14 -15 -14 -13 -12 -11 -10 -10 -9 -9 -9 -10 -12 -15 -16 -15 -14 -14 -15 -8 -8 -9 -7 -7 -10 -10 -8 -8 -10 -7 -2 -1 -2 -2 -3 -6 -8
-6 -3 -4 -7 -12 -14 -14 -13 -13 -12 -11 -10 -9 -9 -9 -12 -13 -14 -15 -16 -14 -12 -11 -11 -13 -7 -8 -8 -9 -9 -12 -11 -10 -9 -8 -10 -7 -3 -2 -3 -5 -5 -7
-3 -6 -7 -11 -14 -12 -14 -13 -11 -10 -9 -9 -10 -12 -12 -12 -12 -14 -15 -13 -10 -9 -9 -8 -10 -8 -8 -9 -11 -11 -13 -11 -12 -12 -8 -7 -7 -5 -3 -3 -5 -7 -8
-3 -5 -8 -12 -8 -13 -13 -11 -10 -9 -10 -12 -11 -10 -10 -11 -12 -14 -12 -12 -13 -11 -10 -10 -9 -8 -9 -10 -10 -12 -13 -15 -14 -15 -14 -9 -7 -5 -5 -4 -4 -7 -8
-3 -8 -7 -8 -12 -13 -11 -10 -10 -11 -12 -10 -10 -11 -11 -13 -14 -14 -14 -11 -11 -11 -11 -11 -11 -10 -10 -9 -10 -11 -12 -14 -16 -16 -17 -14 -10 -8 -7 -8 -8 -8 -8
-4 -5 -7 -10 -12 -11 -11 -10 -11 -12 -12 -12 -13 -12 -12 -13 -14 -13 -13 -13 -13 -12 -11 -11 -11 -11 -11 -12 -12 -12 -13 -14 -14 -15 -14 -17 -14 -12 -9 -9 -9 -8 -7
-6 -6 -11 -12 -11 -11 -10 -12 -13 -15 -17 -16 -14 -15 -14 -13 -12 -12 -12 -11 -12 -13 -12 -11 -11 -11 -11 -12 -12 -13 -14 -13 -13 -14 -14 -12 -17 -17 -18 -9 -8 -11 -10
-8 -12 -11 -10 -10 -10 -11 -13 -16 -17 -16 -15 -15 -14 -13 -13 -13 -12 -12 -12 -12 -13 -14 -14 -14 -13 -11 -11 -11 -11 -10 -10 -10 -11 -13 -11 -13 -15 -16 -18 -17 -9 -13
-10 -9 -7 -9 -10 -11 -12 -15 -17 -16 -15 -15 -14 -14 -14 -14 -13 -13 -13 -13 -13 -13 -12 -13 -13 -13 -13 -13 -12 -11 -11 -10 -9 -10 -11 -11 -12 -11 -11 -13 -15 -16 -16
Wind_Speed
6 5 5 5 6 10 14 15 17 19 21 24 27 27 24 21 19 17 17 18 19 19 19 21 20 19 18 18 20 21 22 21 19 20 20 21 20 23 23 25 27 27 27
6 6 7 9 12 17 21 23 25 21 21 26 28 26 25 23 18 15 12 14 17 20 24 23 21 20 19 18 18 20 22 23 23 23 21 20 21 22 24 28 27 28 30
10 10 12 13 15 19 23 27 26 25 25 27 22 22 22 23 23 22 20 18 19 20 21 22 27 29 25 23 21 22 22 24 23 23 23 23 22 21 25 26 31 30 31
11 10 13 16 19 25 31 31 28 26 29 24 23 22 21 21 22 22 23 24 24 21 22 22 23 25 30 31 28 26 24 24 25 22 22 22 22 23 24 25 29 30 32
13 15 17 20 25 31 29 29 26 24 21 23 24 26 25 25 25 28 27 27 26 26 26 26 25 25 26 29 33 32 29 27 26 26 24 22 21 22 23 25 25 28 32
14 16 20 26 31 28 24 20 22 21 22 24 25 27 30 32 34 33 29 28 29 24 26 25 23 25 24 27 30 33 33 29 26 29 29 26 23 22 23 24 26 25 25
17 23 28 26 24 19 17 18 21 23 25 29 32 35 37 28 22 26 18 19 25 28 27 23 20 19 22 25 25 28 33 33 30 29 31 30 28 24 24 25 25 24 24
23 25 23 22 20 18 19 22 25 27 28 29 31 33 21 29 16 22 28 21 22 26 27 30 31 31 29 25 28 27 27 35 35 30 31 34 31 28 25 25 26 25 23
21 19 17 18 21 23 24 25 26 27 29 28 26 22 16 12 29 24 28 25 24 32 36 37 37 37 39 37 34 32 31 27 34 35 32 32 32 31 27 26 26 27 24
16 16 17 22 26 26 27 24 26 28 28 27 25 21 20 22 23 24 18 35 38 37 35 32 30 27 26 27 30 35 34 35 32 32 34 32 32 34 30 26 26 26 25
17 19 22 31 31 21 23 26 32 28 25 21 20 24 27 23 17 21 32 28 34 36 34 33 29 22 16 18 20 26 29 34 33 24 30 34 32 35 30 25 24 25 24
25 34 37 24 21 24 27 29 32 26 26 25 25 22 20 21 24 24 25 31 30 36 30 26 27 19 14 13 15 20 25 22 28 32 24 31 35 34 31 27 23 23 22
29 27 21 20 22 21 23 22 22 23 22 19 18 18 17 18 19 20 23 26 23 30 26 23 22 18 15 12 13 14 18 21 23 19 28 26 33 34 26 23 21 20 22
24 20 16 13 17 22 21 19 18 20 20 19 16 17 19 18 15 15 18 21 29 24 26 25 22 14 11 11 8 12 16 14 20 22 21 25 28 34 29 13 15 16 17
24 16 12 19 16 21 19 19 19 16 17 18 20 22 20 19 19 19 20 23 23 25 31 28 22 20 13 12 12 13 10 11 15 12 17 17 27 29 37 24 17 12 9
22 22 27 21 10 18 20 20 18 18 20 22 22 22 21 19 19 22 25 29 28 25 31 25 26 22 13 12 12 12 11 9 10 13 19 20 18 28 35 36 29 26 24
19 22 22 11 20 15 16 19 20 21 22 24 23 22 22 24 27 29 30 31 32 29 30 30 26 22 18 15 16 9 7 8 10 14 15 22 21 21 18 12 8 18 28
26 26 30 27 12 16 16 19 21 23 23 25 24 24 27 31 34 36 36 37 33 29 30 31 23 19 14 10 13 18 9 6 9 13 17 17 21 21 24 19 15 11 11
24 30 27 16 12 16 18 20 22 24 25 25 24 28 34 36 33 31 31 30 26 24 25 27 26 23 20 21 20 17 20 20 11 9 12 17 22 12 21 19 18 12 13
27 19 15 12 12 19 20 21 23 23 23 23 30 33 31 29 30 28 30 23 18 18 15 19 22 24 20 19 23 23 22 22 21 15 8 11 15 16 16 18 15 18 18
18 17 13 9 16 18 20 20 21 22 26 30 32 29 27 27 27 25 22 24 23 25 20 17 11 15 16 17 18 18 19 21 26 22 20 9 4 10 1 7 12 14 15
20 14 15 17 16 19 18 19 21 26 29 29 30 29 27 29 24 27 24 21 20 20 20 21 21 19 12 12 13 15 17 17 21 23 21 23 14 8 9 7 10 11 15
18 11 15 15 16 17 19 21 25 28 28 29 29 27 28 28 27 23 19 17 18 17 19 20 22 21 21 19 18 19 18 19 20 19 19 24 25 21 16 9 7 10 9
13 15 11 13 16 19 21 24 27 26 25 26 26 26 24 22 21 19 20 20 16 16 15 14 16 19 19 18 21 21 20 20 22 22 18 21 22 25 25 27 20 16 14
13 10 12 13 18 19 23 26 25 27 29 26 21 21 19 18 16 19 19 19 20 20 21 21 21 20 16 17 14 14 15 15 16 18 16 17 19 18 21 24 24 29 25
11 10 15 15 17 20 23 22 24 26 25 22 21 18 15 15 18 20 21 20 22 22 16 16 17 16 19 23 21 20 18 14 18 14 15 14 12 7 6 12 16 19 22
Wind_Direction
325 295 320 326 323 324 325 323 323 318 317 317 317 312 313 312 313 306 303 303 308 313 312 309 313 318 318 311 305 302 289 283 274 263 260 261 262 256 249 247 240 232 234
274 261 272 290 311 318 325 320 316 306 310 315 314 303 304 303 304 311 308 301 295 296 295 293 297 303 305 308 310 313 302 287 281 277 272 266 259 259 255 247 243 240 236
263 266 288 301 308 309 309 308 308 307 309 313 304 301 300 297 302 305 303 298 294 293 290 284 280 282 288 292 300 305 311 302 289 278 274 270 265 261 257 254 245 240 238
261 266 285 291 295 303 313 314 308 310 314 303 301 300 300 300 302 300 304 306 302 294 287 289 279 269 270 271 275 281 293 301 301 289 280 273 265 257 253 255 250 244 240
264 278 287 294 305 311 310 308 306 310 307 303 303 305 306 305 305 307 305 302 307 307 303 295 288 281 276 269 265 264 268 281 289 292 286 273 270 264 257 253 255 251 246
285 285 298 312 317 311 306 297 301 303 311 314 308 305 304 303 305 305 306 302 298 300 299 296 291 284 285 271 265 259 256 262 274 286 288 278 275 275 270 260 255 254 252
301 310 314 319 312 309 312 314 313 315 313 313 315 309 308 316 305 309 301 294 291 291 289 291 296 291 281 286 277 261 252 252 259 267 278 280 275 275 275 271 263 256 254
305 311 305 310 300 296 302 310 316 319 319 321 327 326 329 315 315 303 310 300 295 293 296 297 296 293 289 288 285 279 257 246 246 257 262 272 272 276 280 267 265 262 254
299 302 302 305 310 314 317 318 321 326 324 322 324 331 332 316 322 315 304 304 295 298 304 307 306 300 297 289 283 279 282 270 249 245 251 258 264 271 273 262 258 260 258
292 292 313 327 329 322 316 317 326 324 319 319 315 304 303 306 316 314 301 300 301 305 310 311 308 303 294 285 281 277 272 272 265 256 247 254 256 261 266 260 253 252 253
296 310 314 322 313 307 319 317 322 320 315 313 314 312 305 303 300 297 308 307 309 306 307 310 304 306 301 288 274 264 265 260 266 281 265 250 243 251 254 256 253 249 246
303 307 307 306 290 303 310 309 309 309 306 302 300 303 308 309 306 309 301 303 309 312 311 303 299 302 297 290 281 271 259 257 250 260 270 257 243 242 245 242 245 249 245
306 308 299 273 279 294 310 313 314 316 316 315 314 314 314 311 310 309 308 313 318 313 329 323 315 303 297 298 278 286 266 256 255 260 256 260 251 231 232 235 235 241 246
316 293 262 290 324 324 322 318 323 322 320 320 323 327 321 318 320 323 323 325 326 324 329 324 316 308 287 276 307 269 271 260 255 253 254 257 251 244 226 219 218 221 233
316 269 266 280 329 327 334 338 332 323 326 325 325 322 314 316 319 315 312 315 317 306 308 312 311 331 293 310 290 302 301 290 272 276 251 260 251 251 240 224 229 238 229
298 276 286 315 324 328 325 337 324 324 323 327 323 318 308 308 303 302 304 307 302 299 292 297 297 311 287 309 305 290 293 297 308 292 275 259 247 237 232 223 251 257 254
276 284 290 269 318 320 321 319 324 320 323 322 312 297 292 300 300 302 302 301 298 290 286 289 293 294 283 285 293 295 288 274 287 301 292 274 237 232 212 218 246 259 246
289 286 294 296 303 306 317 319 318 317 318 314 300 289 297 304 303 303 304 302 297 285 279 281 284 275 261 266 278 286 308 329 290 293 300 292 261 218 199 190 206 226 248
300 307 296 283 284 304 321 314 317 312 304 298 295 303 306 307 307 309 308 304 299 296 282 275 266 265 271 278 277 276 275 279 298 319 299 318 286 268 205 219 208 218 221
301 296 284 284 295 314 312 310 307 301 299 301 304 308 309 307 307 309 310 302 297 309 299 274 266 263 260 260 275 284 283 276 275 279 307 306 313 311 225 200 210 206 208
298 290 278 277 297 302 309 305 300 302 305 306 311 311 308 305 306 305 302 295 291 288 299 302 289 252 245 258 268 271 278 276 271 277 266 255 264 258 244 215 206 207 210
293 275 281 293 298 306 300 304 305 307 310 312 310 310 306 309 307 307 299 290 284 285 285 285 284 282 278 265 267 275 278 280 282 274 268 249 245 215 211 214 224 209 216
282 296 292 293 298 302 303 308 313 315 314 309 310 310 309 309 307 309 307 309 293 285 280 275 273 275 277 267 267 267 273 276 275 275 274 257 249 244 245 231 214 207 209
315 302 286 292 299 302 311 321 320 319 318 318 315 314 315 318 317 315 310 300 310 297 294 292 276 273 271 267 258 262 266 266 264 264 266 270 255 256 249 245 244 244 241
299 288 287 305 300 310 323 326 326 329 324 325 328 330 325 319 328 330 315 310 300 295 301 293 281 267 259 261 260 255 253 256 255 259 250 263 269 271 259 255 251 249 257
309 306 301 293 310 323 329 332 334 331 328 332 338 336 336 332 327 318 315 314 306 305 304 303 296 284 266 257 252 247 249 243 252 262 266 255 266 265 275 268 260 252 252
Height
1565 1565 1564 1562 1562 1562 1561 1560 1558 1557 1555 1553 1551 1549 1547 1545 1544 1542 1541 1540 1539 1538 1536 1535 1533 1531 1530 1528 1526 1526 1525 1526 1527 1529 1529 1527 1524 1527 1529 1532 1535 1537 1542
1564 1563 1562 1561 1560 1560 1558 1557 1554 1553 1551 1549 1548 1547 1544 1542 1540 1538 1536 1535 1534 1533 1532 1531 1530 1529 1527 1526 1524 1523 1522 1521 1521 1521 1521 1521 1523 1521 1524 1529 1529 1532 1536
1563 1562 1560 1560 1557 1557 1555 1553 1550 1548 1547 1545 1543 1543 1541 1539 1537 1534 1532 1529 1528 1527 1526 1525 1523 1524 1523 1522 1520 1518 1517 1516 1516 1516 1515 1516 1516 1517 1521 1522 1524 1527 1531
1563 1561 1559 1556 1554 1552 1550 1547 1545 1543 1542 1540 1539 1538 1537 1535 1533 1530 1527 1523 1522 1521 1520 1519 1518 1516 1515 1515 1515 1515 1513 1510 1510 1511 1512 1512 1512 1514 1516 1517 1520 1522 1524
1560 1558 1556 1553 1550 1548 1545 1542 1541 1538 1537 1536 1534 1533 1532 1530 1529 1525 1523 1520 1517 1515 1513 1513 1511 1510 1509 1508 1507 1507 1508 1507 1505 1504 1506 1508 1509 1509 1509 1511 1512 1515 1519
1557 1554 1552 1550 1547 1544 1541 1540 1538 1536 1534 1529 1528 1527 1526 1525 1523 1519 1517 1515 1512 1511 1508 1507 1505 1503 1501 1501 1500 1500 1500 1502 1502 1501 1500 1501 1503 1504 1505 1505 1506 1508 1511
1554 1551 1548 1545 1543 1540 1538 1536 1534 1532 1530 1525 1521 1518 1517 1519 1517 1514 1511 1509 1507 1505 1504 1502 1501 1499 1496 1493 1493 1493 1493 1494 1496 1497 1496 1495 1496 1499 1499 1499 1500 1501 1503
1551 1548 1545 1542 1539 1537 1535 1533 1530 1527 1525 1522 1519 1514 1509 1510 1511 1510 1507 1504 1501 1499 1498 1496 1494 1493 1492 1489 1487 1486 1486 1486 1487 1490 1491 1491 1490 1491 1493 1494 1494 1495 1497
1546 1544 1541 1539 1536 1533 1530 1527 1524 1522 1520 1518 1518 1517 1510 1506 1502 1503 1501 1499 1496 1494 1493 1491 1489 1486 1485 1484 1483 1481 1479 1480 1480 1481 1483 1485 1484 1485 1487 1489 1490 1490 1492
1541 1539 1538 1535 1532 1530 1527 1524 1521 1518 1517 1514 1514 1513 1510 1506 1501 1494 1494 1493 1489 1487 1486 1484 1482 1479 1477 1476 1476 1474 1473 1473 1473 1474 1476 1477 1478 1477 1480 1482 1483 1485 1487
1538 1536 1533 1531 1530 1527 1524 1522 1520 1515 1512 1511 1508 1506 1503 1500 1499 1494 1485 1485 1483 1482 1481 1478 1476 1474 1471 1469 1467 1466 1466 1466 1466 1466 1469 1470 1470 1471 1472 1474 1477 1479 1481
1535 1533 1532 1525 1523 1522 1519 1517 1515 1510 1508 1506 1502 1500 1498 1497 1494 1491 1485 1480 1477 1474 1473 1473 1470 1469 1467 1465 1462 1460 1459 1458 1458 1461 1464 1464 1464 1465 1468 1467 1471 1474 1476
1531 1527 1524 1521 1519 1516 1514 1511 1508 1506 1503 1502 1498 1495 1493 1492 1489 1487 1483 1478 1473 1469 1466 1465 1464 1463 1463 1460 1458 1456 1454 1454 1454 1454 1456 1459 1460 1459 1461 1463 1464 1468 1470
1525 1522 1520 1519 1517 1515 1509 1507 1503 1502 1500 1498 1496 1493 1490 1489 1486 1482 1480 1476 1469 1466 1464 1462 1461 1460 1458 1456 1453 1451 1449 1449 1448 1448 1449 1452 1454 1454 1457 1459 1459 1461 1464
1520 1518 1516 1512 1507 1514 1508 1504 1501 1499 1497 1494 1491 1489 1488 1485 1481 1479 1477 1474 1471 1464 1458 1458 1457 1457 1455 1453 1451 1448 1446 1445 1445 1444 1444 1444 1447 1448 1450 1453 1454 1457 1460
1516 1513 1511 1508 1508 1506 1506 1500 1499 1495 1494 1490 1487 1486 1486 1479 1475 1473 1471 1468 1466 1462 1453 1455 1453 1452 1450 1448 1448 1445 1443 1442 1441 1440 1439 1439 1438 1440 1444 1447 1450 1451 1455
1512 1509 1506 1505 1503 1500 1497 1498 1494 1492 1488 1486 1483 1481 1479 1473 1469 1466 1463 1460 1458 1456 1449 1446 1447 1446 1444 1443 1443 1441 1439 1438 1437 1436 1435 1434 1434 1435 1436 1439 1442 1444 1448
1507 1503 1501 1499 1497 1498 1494 1492 1489 1487 1484 1481 1478 1476 1472 1467 1462 1458 1454 1450 1447 1445 1442 1438 1440 1440 1439 1438 1438 1437 1435 1434 1433 1432 1430 1430 1428 1428 1431 1433 1438 1441 1445
1502 1500 1498 1494 1494 1494 1490 1488 1485 1483 1480 1476 1473 1469 1464 1459 1453 1450 1446 1441 1438 1435 1433 1431 1431 1432 1432 1432 1432 1432 1430 1430 1430 1429 1426 1423 1424 1423 1423 1429 1433 1439 1444
1497 1494 1493 1491 1491 1490 1486 1484 1481 1478 1475 1472 1468 1462 1457 1452 1447 1442 1438 1435 1433 1429 1426 1424 1423 1424 1425 1426 1426 1425 1424 1425 1425 1427 1426 1422 1421 1424 1423 1424 1431 1435 1440
1492 1490 1488 1487 1487 1485 1483 1479 1477 1473 1470 1465 1460 1455 1451 1446 1442 1437 1433 1429 1427 1425 1422 1420 1418 1418 1418 1419 1419 1418 1418 1419 1419 1421 1423 1423 1422 1422 1422 1424 1427 1431 1434
1488 1486 1485 1484 1482 1480 1478 1475 1472 1468 1463 1457 1452 1448 1443 1439 1434 1430 1427 1424 1422 1419 1417 1416 1414 1413 1413 1413 1413 1413 1413 1414 1414 1414 1415 1418 1419 1420 1423 1423 1423 1425 1428
1483 1482 1481 1479 1478 1476 1473 1471 1466 1461 1456 1451 1446 1441 1436 1432 1427 1423 1420 1417 1415 1413 1412 1410 1408 1408 1408 1409 1409 1408 1408 1408 1408 1409 1409 1409 1412 1415 1418 1419 1421 1422 1424
1480 1478 1477 1476 1474 1472 1469 1464 1459 1455 1450 1445 1440 1435 1430 1425 1422 1418 1415 1412 1409 1407 1406 1404 1403 1402 1401 1401 1401 1402 1402 1401 1401 1402 1404 1402 1405 1407 1410 1414 1416 1418 1421
1476 1475 1474 1473 1470 1467 1464 1459 1453 1448 1443 1439 1434 1430 1425 1421 1418 1415 1411 1407 1404 1402 1401 1398 1396 1396 1395 1395 1396 1396 1396 1396 1395 1395 1398 1399 1400 1401 1403 1405 1409 1412 1415
1474 1472 1471 1469 1467 1463 1459 1455 1450 1444 1438 1434 1430 1427 1423 1419 1416 1412 1407 1403 1399 1397 1394 1392 1391 1389 1388 1388 1390 1390 1391 1392 1392 1392 1393 1396 1396 1398 1398 1399 1402 1404 1407